New Roads False River Regiona, LA

6:23 PM CDT on September 22, 2019 (GMT -0500)
False River

Weather History for KHZR - July, 2019

Change the Weather History Date:

Friday, July 12, 2019

  Actual Average (WUND) Record (WUND)
Temperature  
Mean Temperature 82 °F -  
Max Temperature 89 °F - - (-1)
Min Temperature 75 °F - - (-1)
Cooling Degree Days 17    
Growing Degree Days 32 (Base 50)    
Moisture  
Dew Point 74 °F    
Average Humidity 79    
Maximum Humidity 100    
Minimum Humidity 59    
Precipitation  
Precipitation 0.02 in - - ()
Sea Level Pressure  
Sea Level Pressure 29.74 in    
Wind  
Wind Speed 10 mph (NE)    
Max Wind Speed 21 mph    
Max Gust Speed 32 mph    
Visibility 10 miles    
Events Rain    
Averages and records for this station are not official NWS values.
T = Trace of Precipitation, MM = Missing Value Source: NWS Daily Summary

Daily Weather History Graph

Daily Weather History Graph

Search for Another Location

Airport or City:

Astronomy

Jul. 12, 2019 Rise Set
Actual Time 6:11 AM CDT 8:11 PM CDT
Civil Twilight 5:44 AM CDT 8:38 PM CDT
Nautical Twilight 5:11 AM CDT 9:11 PM CDT
Astronomical Twilight 4:36 AM CDT 9:46 PM CDT
Moon 4:36 PM CDT (7/12) 2:47 AM CDT (7/12)
Length of Visible Light 14h 53m
Length of Day
13h 59m
Waxing Gibbous, 83% of the Moon is Illuminated
Jul 12
Waxing Gibbous
Jul 16
Full
Jul 24
Last Quarter
Jul 31
New
Aug 7
First Quarter

Hourly Weather History & Observations

Time (CDT) Temp. Heat Index Dew Point Humidity Pressure Visibility Wind Dir Wind Speed Gust Speed Precip Events Conditions
12:17 AM 77.0 °F - 75.2 °F 94% 29.80 in 10.0 mi NE 4.6 mph - N/A   Clear
12:35 AM 77.0 °F - 75.2 °F 94% 29.79 in 10.0 mi NNE 4.6 mph - N/A   Clear
12:54 AM 77.0 °F - 75.2 °F 94% 29.78 in 10.0 mi NNE 6.9 mph - N/A   Clear
1:14 AM 77.0 °F - 75.2 °F 94% 29.77 in 10.0 mi NNE 5.8 mph - N/A   Clear
1:54 AM 77.0 °F - 75.2 °F 94% 29.76 in 10.0 mi NNE 5.8 mph - N/A   Clear
2:15 AM 77.0 °F - 75.2 °F 94% 29.77 in 10.0 mi North 6.9 mph - N/A   Clear
2:35 AM 75.2 °F - 75.2 °F 100% 29.77 in 10.0 mi NNE 6.9 mph - N/A   Clear
2:55 AM 77.0 °F - 75.2 °F 94% 29.77 in 10.0 mi NNE 5.8 mph - N/A   Clear
3:14 AM 77.0 °F - 75.2 °F 94% 29.77 in 10.0 mi NNE 4.6 mph - N/A   Clear
3:34 AM 75.2 °F - 75.2 °F 100% 29.76 in 10.0 mi North 6.9 mph - N/A   Clear
3:54 AM 75.2 °F - 73.4 °F 94% 29.76 in 10.0 mi North 6.9 mph - N/A   Clear
4:14 AM 75.2 °F - 75.2 °F 100% 29.76 in 10.0 mi North 8.1 mph - N/A   Clear
4:34 AM 75.2 °F - 73.4 °F 94% 29.76 in 10.0 mi North 8.1 mph - N/A   Clear
4:54 AM 75.2 °F - 73.4 °F 94% 29.76 in 10.0 mi North 6.9 mph - N/A   Clear
5:15 AM 75.2 °F - 73.4 °F 94% 29.76 in 10.0 mi North 6.9 mph - N/A   Clear
5:35 AM 75.2 °F - 73.4 °F 94% 29.77 in 10.0 mi NNE 6.9 mph - N/A   Clear
5:55 AM 75.2 °F - 73.4 °F 94% 29.76 in 10.0 mi North 6.9 mph - N/A   Clear
6:14 AM 75.2 °F - 73.4 °F 94% 29.76 in 10.0 mi NNE 9.2 mph - N/A   Clear
6:35 AM 75.2 °F - 73.4 °F 94% 29.75 in 10.0 mi NNE 9.2 mph - N/A   Clear
6:54 AM 75.2 °F - 73.4 °F 94% 29.75 in 10.0 mi NNE 9.2 mph - N/A   Clear
7:14 AM 77.0 °F - 73.4 °F 89% 29.75 in 10.0 mi NNE 10.4 mph 16.1 mph N/A   Clear
7:54 AM 78.8 °F - 75.2 °F 89% 29.75 in 10.0 mi NNE 8.1 mph - N/A   Scattered Clouds
8:14 AM 78.8 °F - 73.4 °F 83% 29.75 in 10.0 mi NNE 9.2 mph - N/A   Scattered Clouds
8:34 AM 80.6 °F 86.2 °F 75.2 °F 84% 29.76 in 10.0 mi NE 10.4 mph - N/A   Scattered Clouds
8:56 AM 80.6 °F 85.4 °F 73.4 °F 79% 29.77 in 10.0 mi NNE 12.7 mph - N/A   Scattered Clouds
9:15 AM 82.4 °F 89.5 °F 75.2 °F 79% 29.77 in 10.0 mi NNE 11.5 mph 17.3 mph N/A   Mostly Cloudy
9:34 AM 82.4 °F 89.5 °F 75.2 °F 79% 29.76 in 10.0 mi NE 13.8 mph 18.4 mph N/A   Overcast
9:54 AM 84.2 °F 92.3 °F 75.2 °F 74% 29.76 in 10.0 mi NNE 15.0 mph 20.7 mph N/A   Scattered Clouds
10:14 AM 84.2 °F 90.9 °F 73.4 °F 70% 29.76 in 10.0 mi NE 13.8 mph 24.2 mph N/A   Overcast
10:34 AM 84.2 °F 90.9 °F 73.4 °F 70% 29.76 in 10.0 mi NE 15.0 mph 23.0 mph N/A   Overcast
10:54 AM 84.2 °F 90.9 °F 73.4 °F 70% 29.76 in 10.0 mi NE 12.7 mph 19.6 mph N/A   Overcast
11:14 AM 86.0 °F 95.1 °F 75.2 °F 70% 29.76 in 10.0 mi NE 13.8 mph 20.7 mph N/A   Mostly Cloudy
11:34 AM 86.0 °F 93.4 °F 73.4 °F 66% 29.76 in 10.0 mi NE 13.8 mph 24.2 mph N/A   Mostly Cloudy
12:14 PM 87.8 °F 97.6 °F 75.2 °F 66% 29.74 in 10.0 mi NE 11.5 mph 20.7 mph N/A   Mostly Cloudy
12:34 PM 87.8 °F 95.6 °F 73.4 °F 62% 29.74 in 10.0 mi NE 13.8 mph - N/A   Mostly Cloudy
12:54 PM 87.8 °F 95.6 °F 73.4 °F 62% 29.74 in 10.0 mi NE 15.0 mph 21.9 mph N/A   Overcast
1:15 PM 86.0 °F 93.4 °F 73.4 °F 66% 29.74 in 5.0 mi NE 18.4 mph 27.6 mph N/A Rain Light Rain
1:34 PM 84.2 °F 92.3 °F 75.2 °F 74% 29.74 in 10.0 mi NE 15.0 mph 23.0 mph N/A   Overcast
1:54 PM 84.2 °F 92.3 °F 75.2 °F 74% 29.73 in 10.0 mi NNE 15.0 mph 21.9 mph N/A   Scattered Clouds
2:16 PM 87.8 °F 99.7 °F 77.0 °F 70% 29.71 in 10.0 mi NE 15.0 mph 21.9 mph N/A   Scattered Clouds
2:35 PM 87.8 °F 97.6 °F 75.2 °F 66% 29.72 in 10.0 mi NNE 15.0 mph 20.7 mph N/A   Mostly Cloudy
2:54 PM 89.6 °F 99.8 °F 75.2 °F 62% 29.71 in 10.0 mi NE 11.5 mph 19.6 mph N/A   Overcast
3:14 PM 89.6 °F 98.2 °F 73.4 °F 59% 29.71 in 10.0 mi NE 10.4 mph 24.2 mph N/A   Mostly Cloudy
3:36 PM 89.6 °F 99.8 °F 75.2 °F 62% 29.71 in 10.0 mi NNE 13.8 mph 21.9 mph N/A   Mostly Cloudy
3:55 PM 89.6 °F 99.8 °F 75.2 °F 62% 29.70 in 10.0 mi NE 12.7 mph 24.2 mph N/A   Scattered Clouds
4:15 PM 89.6 °F 98.2 °F 73.4 °F 59% 29.69 in 10.0 mi NE 13.8 mph 25.3 mph N/A   Scattered Clouds
4:37 PM 89.6 °F 98.2 °F 73.4 °F 59% 29.68 in 10.0 mi NE 17.3 mph 28.8 mph N/A   Clear
4:54 PM 87.8 °F 95.6 °F 73.4 °F 62% 29.69 in 10.0 mi ENE 17.3 mph 29.9 mph N/A   Mostly Cloudy
5:15 PM 82.4 °F 90.9 °F 77.0 °F 84% 29.69 in 10.0 mi ENE 8.1 mph - 0.02 in   Scattered Clouds
5:35 PM 86.0 °F 96.9 °F 77.0 °F 74% 29.69 in 10.0 mi NE 13.8 mph 18.4 mph 0.02 in   Scattered Clouds
5:54 PM 86.0 °F 93.4 °F 73.4 °F 66% 29.68 in 10.0 mi NE 15.0 mph 23.0 mph 0.02 in   Scattered Clouds
6:16 PM 87.8 °F 95.6 °F 73.4 °F 62% 29.68 in 10.0 mi ENE 15.0 mph 20.7 mph N/A   Scattered Clouds
6:34 PM 86.0 °F 91.8 °F 71.6 °F 62% 29.69 in 10.0 mi ENE 17.3 mph 23.0 mph N/A   Mostly Cloudy
6:54 PM 84.2 °F 90.9 °F 73.4 °F 70% 29.69 in 10.0 mi ENE 19.6 mph 25.3 mph N/A   Mostly Cloudy
7:14 PM 84.2 °F 90.9 °F 73.4 °F 70% 29.70 in 7.0 mi ENE 20.7 mph 28.8 mph N/A Rain Rain
7:35 PM 80.6 °F 85.4 °F 73.4 °F 79% 29.70 in 10.0 mi ENE 10.4 mph 18.4 mph N/A   Mostly Cloudy
7:54 PM 80.6 °F 85.4 °F 73.4 °F 79% 29.71 in 10.0 mi ENE 12.7 mph 19.6 mph N/A   Mostly Cloudy
8:14 PM 80.6 °F 85.4 °F 73.4 °F 79% 29.71 in 10.0 mi NE 17.3 mph 24.2 mph N/A   Overcast
8:34 PM 80.6 °F 84.6 °F 71.6 °F 74% 29.71 in 10.0 mi ENE 12.7 mph 24.2 mph N/A   Scattered Clouds
8:54 PM 80.6 °F 84.6 °F 71.6 °F 74% 29.71 in 10.0 mi NE 16.1 mph 25.3 mph N/A   Clear
9:16 PM 80.6 °F 84.6 °F 71.6 °F 74% 29.70 in 10.0 mi NE 15.0 mph 26.5 mph N/A   Clear
9:36 PM 80.6 °F 84.6 °F 71.6 °F 74% 29.72 in 10.0 mi ENE 15.0 mph 28.8 mph N/A   Clear
9:54 PM 80.6 °F 84.6 °F 71.6 °F 74% 29.71 in 10.0 mi ENE 19.6 mph 29.9 mph N/A   Scattered Clouds
10:14 PM 80.6 °F 84.6 °F 71.6 °F 74% 29.71 in 10.0 mi ENE 19.6 mph 32.2 mph N/A   Mostly Cloudy
10:34 PM 78.8 °F - 71.6 °F 78% 29.71 in 10.0 mi ENE 19.6 mph 28.8 mph N/A   Mostly Cloudy
10:55 PM 78.8 °F - 73.4 °F 83% 29.72 in 10.0 mi ENE 16.1 mph 26.5 mph N/A   Mostly Cloudy
11:16 PM 78.8 °F - 73.4 °F 83% 29.72 in 10.0 mi ENE 16.1 mph 21.9 mph N/A   Overcast
11:34 PM 78.8 °F - 73.4 °F 83% 29.72 in 10.0 mi ENE 15.0 mph 21.9 mph N/A   Overcast
11:54 PM 78.8 °F - 73.4 °F 83% 29.71 in 10.0 mi ENE 16.1 mph 24.2 mph N/A   Overcast